Date String (YYYY-MM-DD hh:mm:ss) UTC,Instrument flags,absolute air pressure of the measurement (hPa),sample flow rate (lpm),inlet stack bypass flow (lpm),air temperature of the measurement (°C),ambient temperature measured by the external sensor (°C),aerosol sample conditioner tube jacket temperature (°C),OPC LED temperature (°C),internal box temperature (°C),relative humidity of the measurement (%),span deviation,mass concentration of particles derived from Lorenz-Mie calculation of OPC scattering (μg/m³),mass concentration of particles derived from Lorenz-Mie calculation of OPC scattering (μg/m³),mass concentration of particles derived from Lorenz-Mie calculation of OPC scattering (μg/m³)
DateTimeUTC,F1_M11,P_M11,Q1_M11,Q2_M11,T1_M11,T2_M11,T3_M11,T4_M11,T5_M11,U1_M11,ZSPAN_M11,X0_M11,X2_M11,X1_M11
2023-07-29 20:00:00,SystemResetWarning,0837.7,5.00,000.00,029.5,026.8,000.0,037.8,030.6,32.5,0000.0,0013.78,0005.42,0004.53
2023-07-29 20:01:00,SystemResetWarning,0837.7,5.00,000.00,029.6,027.2,000.0,037.8,030.7,33.1,0000.0,0013.28,0005.50,0004.55
2023-07-29 20:02:00,SystemResetWarning,0837.7,5.00,000.00,029.6,027.5,000.0,037.8,030.8,33.5,0000.0,0013.23,0005.60,0004.56
2023-07-29 20:03:00,SystemResetWarning,0837.7,5.00,000.00,029.6,027.8,000.0,037.8,030.9,33.2,0000.0,0012.26,0005.58,0004.57
2023-07-29 20:04:00,SystemResetWarning,0837.7,5.00,000.00,029.6,027.5,000.0,037.8,030.9,32.7,0000.0,0012.16,0005.57,0004.57
2023-07-29 20:05:00,SystemResetWarning,0837.7,5.00,000.00,029.6,026.0,000.0,037.7,030.8,32.0,0000.0,0011.36,0005.55,0004.56
2023-07-29 20:06:00,SystemResetWarning,0837.7,5.01,000.00,029.6,025.1,000.0,037.6,030.6,32.7,0000.0,0011.43,0005.57,0004.58
2023-07-29 20:07:00,SystemResetWarning,0837.6,5.01,000.00,029.5,025.1,000.0,037.6,030.3,33.4,0000.0,0011.61,0005.62,0004.58
2023-07-29 20:08:00,SystemResetWarning,0837.6,5.00,000.00,029.4,025.5,000.0,037.6,030.3,34.4,0000.0,0011.97,0005.61,0004.57
2023-07-29 20:09:00,SystemResetWarning,0837.6,5.00,000.00,029.3,026.0,000.0,037.6,030.4,34.2,0000.0,0011.54,0005.58,0004.56
2023-07-29 20:10:00,SystemResetWarning,0837.7,5.00,000.00,029.3,026.4,000.0,037.7,030.5,34.6,0000.0,0011.37,0005.58,0004.55
2023-07-29 20:11:00,SystemResetWarning,0837.6,4.99,000.00,029.4,026.8,000.0,037.7,030.6,34.9,0000.0,0011.57,0005.62,0004.55
2023-07-29 20:12:00,SystemResetWarning,0837.6,5.01,000.00,029.5,027.2,000.0,037.7,030.7,34.9,0000.0,0012.36,0005.65,0004.54
2023-07-29 20:13:00,SystemResetWarning,0837.6,5.00,000.00,029.6,027.5,000.0,037.7,030.9,34.3,0000.0,0011.82,0005.55,0004.53
2023-07-29 20:14:00,SystemResetWarning,0837.6,4.99,000.00,029.8,027.7,000.0,037.7,031.0,33.9,0000.0,0012.05,0005.59,0004.52
2023-07-29 20:15:00,SystemResetWarning,0837.6,4.99,000.00,029.9,027.1,000.0,037.7,030.9,32.9,0000.0,0012.58,0005.60,0004.52
2023-07-29 20:16:00,SystemResetWarning,0837.5,5.01,000.00,029.9,025.6,000.0,037.6,030.7,33.3,0000.0,0012.55,0005.59,0004.52
2023-07-29 20:17:00,SystemResetWarning,0837.5,5.00,000.00,029.8,025.1,000.0,037.6,030.5,32.3,0000.0,0013.81,0005.64,0004.50
2023-07-29 20:18:00,SystemResetWarning,0837.4,5.01,000.00,029.7,025.2,000.0,037.6,030.4,31.9,0000.0,0013.79,0005.57,0004.49
2023-07-29 20:19:00,SystemResetWarning,0837.4,5.01,000.00,029.7,025.6,000.0,037.7,030.4,33.3,0000.0,0013.69,0005.54,0004.49
2023-07-29 20:20:00,SystemResetWarning,0837.4,5.00,000.00,029.7,026.1,000.0,037.7,030.5,32.1,0000.0,0014.29,0005.56,0004.51
2023-07-29 20:21:00,SystemResetWarning,0837.4,5.00,000.00,029.7,026.6,000.0,037.8,030.6,31.3,0000.0,0014.52,0005.57,0004.52
2023-07-29 20:22:00,SystemResetWarning,0837.4,5.00,000.00,029.7,027.0,000.0,037.8,030.7,30.7,0000.0,0014.95,0005.63,0004.54
2023-07-29 20:23:00,SystemResetWarning,0837.4,5.00,000.00,029.7,027.3,000.0,037.8,030.8,31.0,0000.0,0014.73,0005.62,0004.56
2023-07-29 20:24:00,SystemResetWarning,0837.4,5.00,000.00,029.7,027.6,000.0,037.9,030.9,30.4,0000.0,0014.87,0005.61,0004.57
2023-07-29 20:25:00,SystemResetWarning,0837.5,4.99,000.00,029.8,027.2,000.0,037.8,030.9,30.3,0000.0,0014.89,0005.63,0004.59
2023-07-29 20:26:00,SystemResetWarning,0837.5,5.00,000.00,029.7,025.7,000.0,037.7,030.6,29.9,0000.0,0014.30,0005.65,0004.62
2023-07-29 20:27:00,SystemResetWarning,0837.4,5.00,000.00,029.7,025.1,000.0,037.6,030.5,30.3,0000.0,0014.41,0005.69,0004.64
2023-07-29 20:28:00,SystemResetWarning,0837.4,5.01,000.00,029.6,025.2,000.0,037.6,030.4,30.6,0000.0,0013.38,0005.67,0004.66
2023-07-29 20:29:00,SystemResetWarning,0837.4,5.01,000.00,029.5,025.6,000.0,037.7,030.4,31.0,0000.0,0013.47,0005.74,0004.69
2023-07-29 20:30:00,SystemResetWarning,0837.4,4.99,000.00,029.4,026.1,000.0,037.7,030.5,31.1,0000.0,0013.60,0005.80,0004.72
2023-07-29 20:31:00,SystemResetWarning,0837.4,5.00,000.00,029.5,026.5,000.0,037.7,030.5,32.7,0000.0,0013.21,0005.86,0004.72
2023-07-29 20:32:00,SystemResetWarning,0837.4,5.01,000.00,029.5,026.9,000.0,037.7,030.6,32.4,0000.0,0013.70,0005.90,0004.71
2023-07-29 20:33:00,SystemResetWarning,0837.4,5.00,000.00,029.5,027.3,000.0,037.7,030.7,32.9,0000.0,0014.75,0005.85,0004.71
2023-07-29 20:34:00,SystemResetWarning,0837.4,4.99,000.00,029.5,027.6,000.0,037.8,030.8,32.7,0000.0,0014.88,0005.83,0004.71
2023-07-29 20:35:00,SystemResetWarning,0837.4,5.00,000.00,029.6,027.8,000.0,037.8,030.9,33.1,0000.0,0014.51,0005.79,0004.70
2023-07-29 20:36:00,SystemResetWarning,0837.4,5.00,000.00,029.6,026.7,000.0,037.7,030.8,31.2,0000.0,0014.50,0005.74,0004.68
2023-07-29 20:37:00,SystemResetWarning,0837.4,5.00,000.00,029.5,025.4,000.0,037.6,030.5,31.4,0000.0,0014.46,0005.69,0004.66
2023-07-29 20:38:00,SystemResetWarning,0837.3,5.00,000.00,029.4,025.0,000.0,037.5,030.4,31.4,0000.0,0014.50,0005.69,0004.65
2023-07-29 20:39:00,SystemResetWarning,0837.3,5.02,000.00,029.3,025.3,000.0,037.5,030.2,32.8,0000.0,0014.60,0005.68,0004.63
2023-07-29 20:40:00,SystemResetWarning,0837.3,5.00,000.00,029.3,025.7,000.0,037.6,030.3,34.0,0000.0,0014.25,0005.62,0004.60
2023-07-29 20:41:00,SystemResetWarning,0837.3,4.97,000.00,029.3,026.2,000.0,037.6,030.4,35.3,0000.0,0014.48,0005.56,0004.58
2023-07-29 20:42:00,SystemResetWarning,0837.3,5.04,000.00,029.4,026.6,000.0,037.6,030.6,34.7,0000.0,0015.37,0005.48,0004.56
2023-07-29 20:43:00,SystemResetWarning,0837.3,4.96,000.00,029.5,027.0,000.0,037.6,030.7,34.1,0000.0,0014.84,0005.46,0004.55
2023-07-29 20:44:00,SystemResetWarning,0837.2,5.01,000.00,029.6,027.4,000.0,037.6,030.8,34.3,0000.0,0013.32,0005.49,0004.54
2023-07-29 20:45:00,SystemResetWarning,0837.3,4.99,000.00,029.7,027.7,000.0,037.7,030.9,34.6,0000.0,0012.83,0005.47,0004.52
2023-07-29 20:46:00,SystemResetWarning,0837.2,5.01,000.00,029.8,027.6,000.0,037.7,031.0,34.6,0000.0,0012.81,0005.48,0004.50
2023-07-29 20:47:00,SystemResetWarning,0837.3,4.99,000.00,029.9,026.3,000.0,037.6,030.8,34.4,0000.0,0012.70,0005.50,0004.49
2023-07-29 20:48:00,SystemResetWarning,0837.2,4.99,000.00,029.9,025.2,000.0,037.6,030.5,34.4,0000.0,0012.70,0005.50,0004.47
2023-07-29 20:49:00,SystemResetWarning,0837.2,5.01,000.00,029.9,025.2,000.0,037.6,030.4,35.6,0000.0,0013.05,0005.47,0004.46
2023-07-29 20:50:00,SystemResetWarning,0837.2,5.01,000.00,030.0,025.5,000.0,037.7,030.5,34.0,0000.0,0013.09,0005.48,0004.47
2023-07-29 20:51:00,SystemResetWarning,0837.2,4.98,000.00,030.2,025.9,000.0,037.7,030.6,32.5,0000.0,0013.16,0005.49,0004.48
2023-07-29 20:52:00,SystemResetWarning,0837.2,5.02,000.00,030.3,026.4,000.0,037.8,030.7,32.8,0000.0,0013.28,0005.50,0004.48
2023-07-29 20:53:00,SystemResetWarning,0837.2,4.99,000.00,030.3,026.8,000.0,037.9,030.8,33.1,0000.0,0012.24,0005.52,0004.48
2023-07-29 20:54:00,SystemResetWarning,0837.2,4.99,000.00,030.4,027.2,000.0,038.0,030.9,34.6,0000.0,0011.40,0005.53,0004.49
2023-07-29 20:55:00,SystemResetWarning,0837.2,5.02,000.00,030.5,027.5,000.0,038.0,031.0,35.1,0000.0,0011.34,0005.49,0004.50
2023-07-29 20:56:00,SystemResetWarning,0837.2,4.98,000.00,030.6,027.6,000.0,038.1,031.1,34.0,0000.0,0011.00,0005.46,0004.49
2023-07-29 20:57:00,SystemResetWarning,0837.2,5.00,000.00,030.7,026.5,000.0,038.0,031.0,33.0,0000.0,0011.30,0005.47,0004.50
2023-07-29 20:58:00,SystemResetWarning,0837.1,5.01,000.00,030.7,025.3,000.0,038.0,030.8,32.9,0000.0,0011.79,0005.50,0004.51
2023-07-29 20:59:00,SystemResetWarning,0837.0,5.01,000.00,030.7,025.2,000.0,038.0,030.7,33.5,0000.0,0011.92,0005.51,0004.53
